Location: Anglesey
(53.1800°N, 4.2200°W)
Time: 03:19:20
(UTC+01:00)

ISS - Visible Passes

Search period start: 25 September 2017 00:00
Search period end: 05 October 2017 00:00
Orbit: 401 x 407 km, 51.6° (Epoch: 25 September)

Date Brightness Start Highest point End Pass type
(mag) Time Alt. Az. Time Alt. Az. Time Alt. Az.
26 Sep -1.5 21:01:42 10° SSW 21:02:30 15° S 21:02:30 15° S visible
27 Sep -1.9 20:10:10 10° S 20:12:09 15° SE 20:12:39 15° SE visible
27 Sep -1.0 21:44:54 10° WSW 21:45:19 13° SW 21:45:19 13° SW visible
28 Sep -2.8 20:52:46 10° SW 20:55:17 32° S 20:55:17 32° S visible
29 Sep -2.5 20:00:48 10° SSW 20:03:32 25° SSE 20:05:07 17° ESE visible
29 Sep -1.7 21:36:24 10° WSW 21:37:47 23° WSW 21:37:47 23° WSW visible
30 Sep -3.6 20:44:06 10° WSW 20:47:18 49° SSE 20:47:30 48° SSE visible
01 Oct -3.1 19:51:53 10° SW 19:54:57 38° SSE 19:57:10 16° E visible
01 Oct -2.1 21:27:57 10° W 21:29:48 31° WSW 21:29:48 31° WSW visible
02 Oct -3.8 20:35:33 10° WSW 20:38:48 63° S 20:39:24 50° ESE visible
02 Oct -0.5 22:11:55 10° W 22:12:02 11° W 22:12:02 11° W visible
03 Oct -3.5 19:43:11 10° WSW 19:46:24 53° SSE 19:48:57 15° E visible
03 Oct -2.4 21:19:28 10° W 21:21:35 35° WSW 21:21:35 35° WSW visible
04 Oct -3.8 20:27:02 10° W 20:30:17 68° S 20:31:06 46° ESE visible
04 Oct -0.6 22:03:27 10° W 22:03:44 12° W 22:03:44 12° W visible
